Tracking 22879 objects as of 22-Apr-2021
HD Live streaming from Space Station
objects crossing your sky now

ANDESITE

Track ANDESITE now!
10-day predictions


NORAD ID: 45726
Int'l Code: 2020-037D
Perigee: 588.5 km
Apogee: 608.3 km
Inclination: 97.7 °
Period: 96.5 minutes
Semi major axis: 6969 km
RCS: Unknown
Launch date: June 13, 2020
Source: United States (US)
Launch site: Rocket Lab Launch Complex (RLLC)
aabbcc
Your satellite tracking list
Your tracking list is empty




NASA's NSSDC Master Catalog

Two Line Element Set (TLE):
1 45726U 20037D   21111.76175593  .00000116  00000-0  16869-4 0  9997
2 45726  97.7206 291.4929 0014217 347.4938  12.5944 14.92137406 43993
Source of the keplerian elements: AFSPC